Dewpoint
57 57 57 58 59 59 60 61 61 62 64 65 66 67 68 69 69 69 69 69 69 69 70 70 70 70 70 70 70 70 70 70 70 70 70 70 70 70 70 70 71 71 71 72 72 72 72 72 71 70 70 70 70 70 69 69 70 70 70 70 69 69 69 69 70 70 70 71 72 73 73 73 74 74 74 74 74 74 75 74 74 74 73 73 73 73 73 73 74 74 73 73 73 73 73 73 73 73 73 73 73 73 74
56 56 56 57 57 58 59 59 60 61 61 63 65 66 67 68 68 68 68 68 68 69 69 70 70 70 70 70 70 70 70 70 70 70 70 70 70 70 70 70 70 71 71 71 71 72 72 71 70 70 69 69 70 70 69 69 69 69 69 69 69 70 69 70 70 70 70 71 72 73 73 73 73 74 74 74 74 74 74 74 74 73 73 73 73 73 73 74 74 74 74 73 73 73 74 73 73 73 73 73 73 73 73
56 56 56 56 56 57 58 58 59 59 60 61 62 64 65 66 67 67 68 68 68 68 69 69 70 70 70 70 70 70 70 70 70 70 70 70 70 70 70 70 70 71 71 71 71 71 71 71 70 70 70 69 69 69 69 69 69 69 69 69 69 70 70 70 71 71 70 71 72 72 73 73 73 73 74 74 74 74 74 74 74 73 73 73 73 73 74 74 74 74 74 73 73 73 74 74 74 73 73 72 72 72 73
56 55 55 56 56 56 57 57 57 58 58 59 61 62 63 65 65 66 66 67 67 67 68 69 69 70 70 70 70 70 70 70 70 70 70 70 70 70 70 70 70 70 71 71 71 71 71 71 70 70 69 69 69 69 69 69 69 69 68 69 69 69 71 71 71 71 71 71 72 72 73 73 73 73 73 74 74 74 74 74 73 73 73 73 73 73 74 74 74 73 73 73 73 73 74 74 74 74 73 73 72 72 73
55 55 55 55 55 56 56 56 56 57 57 58 59 60 61 63 64 65 65 65 66 67 67 68 68 69 70 70 70 70 70 70 70 70 70 70 70 70 70 70 70 71 71 71 71 71 71 71 70 70 69 69 69 68 68 69 70 70 68 68 69 69 71 71 71 72 72 72 72 72 73 73 73 73 73 73 74 74 74 74 73 73 73 73 73 73 73 73 73 73 73 73 73 73 73 74 74 74 74 73 73 73 73
54 54 54 54 55 55 55 56 56 56 56 57 57 59 60 61 61 62 63 64 65 66 66 67 68 68 69 69 70 70 70 70 70 70 70 70 70 70 70 70 70 71 71 71 72 72 71 70 70 69 68 68 69 69 68 69 69 68 68 68 68 69 70 71 71 71 72 73 73 73 73 73 73 73 73 73 74 74 74 73 73 73 73 72 72 72 73 73 73 73 72 72 73 73 73 73 74 74 74 74 74 73 73
53 53 53 54 54 54 54 54 55 55 55 56 56 57 58 59 60 61 61 63 64 65 65 66 67 67 68 69 69 69 69 70 70 70 70 70 70 70 70 70 70 70 71 71 72 72 71 70 70 69 69 69 68 68 69 68 68 67 67 67 68 70 70 70 71 71 72 73 73 73 73 73 73 73 73 73 73 74 74 73 73 73 72 72 72 72 72 72 72 72 72 72 72 72 72 73 73 74 74 74 74 74 74
52 52 52 53 53 53 53 54 54 54 54 55 56 56 56 57 58 59 60 61 62 63 64 65 65 66 67 68 69 69 69 69 70 70 70 70 70 70 70 70 70 70 71 71 72 72 72 70 70 69 69 69 69 69 69 68 68 67 66 67 68 70 70 70 71 71 72 72 73 73 73 73 73 73 72 73 73 73 74 74 73 73 73 72 72 72 72 72 72 72 72 72 72 72 72 72 73 73 74 74 73 73 74
51 52 52 52 52 52 52 53 53 53 54 54 55 55 56 56 56 57 58 60 61 61 62 63 64 64 65 66 67 68 68 69 69 69 70 70 70 70 70 70 70 70 71 71 72 72 72 70 69 69 69 69 69 69 69 69 68 67 67 67 68 69 70 70 70 71 71 72 72 73 73 73 73 73 73 73 73 73 74 74 73 73 73 72 72 72 72 72 72 72 72 72 72 72 72 72 73 73 74 73 73 73 73
50 51 51 51 51 52 52 52 52 53 53 54 54 55 55 55 56 56 57 58 59 59 60 61 61 62 63 64 65 66 67 68 68 69 69 70 70 70 70 70 70 70 71 71 71 72 72 70 69 68 68 68 68 68 69 69 68 68 67 68 69 70 70 70 71 71 71 71 72 72 72 72 72 73 73 73 73 73 73 74 74 74 73 73 72 72 72 72 72 72 72 72 72 72 72 72 73 73 74 73 73 73 73
50 50 50 50 51 51 51 51 52 52 52 53 53 54 54 54 55 55 56 56 57 57 58 59 60 61 61 61 62 63 65 66 67 68 69 69 70 70 70 70 70 70 71 71 71 71 72 70 68 67 68 68 68 68 69 69 69 69 68 69 70 70 70 71 71 71 71 71 72 72 72 72 72 72 73 73 73 73 73 73 73 74 74 73 73 73 72 72 72 72 72 72 72 72 72 72 73 73 73 73 73 73 73
49 49 50 50 50 50 50 51 51 52 52 52 52 53 53 53 54 54 55 55 56 56 56 56 57 58 60 60 61 61 62 64 66 68 69 69 69 70 70 70 70 70 71 71 71 71 71 70 69 69 68 68 68 68 68 68 68 69 69 70 70 70 71 71 71 70 71 71 71 72 72 72 72 72 72 73 73 73 73 73 73 73 74 74 74 73 73 73 73 73 73 73 73 73 73 73 73 73 73 73 73 73 73
48 49 49 49 49 49 49 50 50 51 51 52 52 52 52 52 53 53 54 54 54 54 54 55 55 56 57 58 59 60 61 63 65 67 68 69 69 69 70 70 70 70 70 71 71 71 70 70 70 70 69 69 68 68 68 68 69 69 69 70 71 71 71 71 71 70 70 71 71 71 71 72 72 72 72 72 73 73 73 73 73 73 73 74 74 74 73 73 73 73 73 73 73 73 73 73 73 73 73 73 73 73 74
47 48 48 48 48 48 48 49 50 50 50 51 51 51 51 52 52 52 53 53 53 53 53 53 53 54 55 56 57 58 60 63 65 67 68 69 69 69 69 70 70 70 70 70 70 70 70 70 70 70 69 69 69 68 69 69 69 69 70 70 71 71 71 71 71 70 70 71 71 71 71 71 72 72 72 72 72 73 73 73 73 73 73 74 74 74 74 73 73 73 73 73 73 73 73 73 73 73 73 73 73 73 73
47 47 47 47 47 47 48 48 49 49 49 50 50 50 50 51 51 52 52 52 52 52 52 52 52 52 53 54 55 56 58 62 65 67 68 68 69 69 69 69 69 70 70 69 69 69 70 70 70 69 69 69 69 69 69 69 69 69 70 71 71 71 72 72 71 71 71 71 70 70 71 71 72 72 72 72 72 72 73 73 73 73 73 73 74 74 74 73 73 73 73 73 73 73 73 73 73 72 72 73 73 73 73
46 47 47 47 47 47 47 47 48 48 49 49 49 49 50 50 50 51 51 52 51 51 51 51 51 51 52 52 53 54 55 61 64 66 67 67 67 67 67 67 68 68 69 68 68 68 69 69 69 69 69 69 69 69 69 68 68 69 70 71 71 72 72 72 72 72 71 71 70 70 70 71 72 72 72 72 72 72 73 73 73 73 73 73 73 73 73 73 73 73 73 73 73 73 73 73 73 72 72 72 72 72 72
45 46 46 46 46 46 47 47 47 47 48 48 48 49 49 49 49 50 50 50 50 50 50 50 50 50 50 51 51 51 50 54 59 63 65 66 66 66 66 66 66 66 67 67 67 68 68 68 68 68 68 68 68 68 68 68 68 69 70 71 72 72 72 72 72 72 72 71 71 71 71 71 71 71 72 72 72 72 72 73 73 73 73 73 73 73 73 73 73 73 73 73 73 73 73 73 73 72 72 72 72 72 72
44 45 45 45 45 45 46 46 47 47 47 47 47 48 48 48 48 49 49 49 48 48 48 48 49 49 48 49 48 46 44 46 50 56 62 64 65 65 65 65 65 65 65 65 66 67 67 68 68 67 66 66 66 66 67 67 68 69 70 71 72 72 73 72 72 72 72 72 71 71 71 71 71 71 71 71 72 72 72 72 73 73 73 73 73 72 73 73 73 73 73 73 73 73 73 73 73 73 72 72 72 72 72
44 44 44 44 44 44 45 45 46 46 46 47 47 47 47 47 47 47 47 47 47 47 47 47 47 47 47 47 45 43 42 43 45 50 58 62 64 64 64 64 64 63 64 65 65 66 67 67 67 66 65 65 65 65 65 66 67 69 71 72 72 73 73 72 72 72 72 72 72 72 71 71 71 70 70 71 71 72 72 72 73 73 73 73 73 73 73 73 73 73 73 73 73 73 73 73 73 73 73 73 72 72 72
43 43 43 42 43 43 43 44 44 45 45 46 46 47 47 47 46 46 46 46 46 46 46 47 46 45 45 44 42 41 42 43 45 48 54 59 62 64 63 63 63 63 63 64 65 66 67 67 67 66 65 64 64 64 64 64 66 69 71 72 72 73 73 72 72 72 71 71 71 72 71 71 70 70 70 70 71 72 72 72 73 73 73 73 73 73 73 73 73 73 73 73 73 73 73 73 73 73 73 73 73 73 72
40 39 38 38 39 40 40 41 41 43 43 45 44 43 42 43 43 44 45 44 44 44 45 45 43 41 40 40 40 41 43 45 47 48 51 55 59 62 64 64 64 63 63 64 65 66 67 67 67 66 65 64 63 62 62 63 65 68 70 71 72 72 72 72 72 71 71 71 71 71 71 71 70 70 70 70 71 72 72 72 72 73 73 73 73 73 73 73 73 73 73 73 73 73 73 73 73 73 73 73 73 73 72
37 36 35 34 34 35 36 37 38 38 39 43 42 40 38 38 38 39 41 39 39 40 41 41 39 37 38 38 40 41 43 44 45 46 47 51 55 59 62 63 64 64 64 65 66 66 66 66 65 65 65 64 63 62 62 64 66 68 70 71 72 72 72 72 71 71 70 70 71 71 71 71 71 70 70 70 71 71 72 72 72 73 73 73 73 74 73 73 73 73 73 73 73 73 73 73 73 73 73 73 73 73 73
36 36 36 33 32 33 34 35 36 36 37 40 40 38 37 36 36 36 37 36 35 35 37 37 37 37 38 38 38 39 40 41 43 44 45 47 51 54 57 60 61 63 64 65 65 65 65 65 65 65 65 65 64 63 63 65 66 67 69 70 71 72 72 72 71 70 70 70 71 71 71 71 71 71 71 70 70 71 71 72 72 72 72 73 73 73 74 73 73 73 73 73 73 73 73 73 73 73 73 73 73 73 73
34 34 33 32 32 32 33 34 34 35 36 38 38 38 37 35 34 34 34 34 35 35 36 36 37 37 38 38 38 38 39 41 42 44 45 46 47 49 51 52 55 58 62 63 64 64 65 65 65 65 65 65 64 63 63 64 65 67 69 70 70 71 71 71 71 71 71 71 71 71 71 71 71 71 71 70 70 70 71 71 72 72 72 73 73 73 73 73 73 73 73 73 73 73 73 73 73 73 73 73 73 73 73
32 32 31 32 32 32 33 34 34 35 36 37 37 37 36 34 34 34 34 35 35 36 36 37 37 37 38 38 38 39 39 41 42 43 44 45 46 46 47 46 48 52 57 61 62 64 64 64 64 65 65 64 63 63 64 64 65 66 68 68 69 70 70 71 71 71 71 71 71 71 71 71 71 71 71 71 70 70 71 71 72 72 72 72 73 73 73 73 73 73 73 73 73 73 73 73 73 73 73 73 73 73 73
32 32 31 32 32 33 33 34 34 35 36 37 37 36 34 34 34 34 35 35 36 37 37 37 37 37 38 38 38 39 40 41 43 43 44 45 45 45 45 45 46 47 50 55 59 61 62 63 63 64 64 63 62 61 62 63 64 66 67 68 68 69 70 70 70 71 71 71 71 71 71 71 71 71 71 71 71 71 71 71 71 72 72 72 72 72 73 73 73 73 73 73 73 73 73 73 73 73 73 73 73 73 73
32 32 31 31 32 33 33 34 34 35 35 37 37 36 34 34 34 34 35 35 36 36 37 37 37 37 38 38 38 39 40 42 43 43 44 44 45 45 44 44 45 45 45 49 53 57 59 61 61 61 61 61 61 61 60 62 64 65 67 68 68 68 69 70 70 71 71 71 71 71 71 71 71 71 71 71 71 71 71 71 71 72 72 72 72 72 72 73 73 73 73 73 73 73 73 73 73 73 73 73 73 73 73
31 31 31 31 31 32 33 33 34 34 35 36 36 35 34 34 34 34 35 35 35 36 37 37 37 37 38 38 39 40 41 42 43 43 43 43 43 44 44 43 43 44 45 46 48 51 55 58 60 60 59 60 60 61 61 61 63 65 68 68 68 68 69 69 70 71 71 71 71 71 71 71 71 71 71 71 71 71 71 71 71 71 72 72 72 72 72 72 73 73 73 73 73 73 73 73 73 73 73 73 73 73 73
31 31 31 31 31 32 32 33 34 34 35 35 34 34 34 34 34 34 35 35 35 35 36 36 37 38 38 39 39 40 41 42 42 42 42 42 43 43 43 43 43 44 45 46 47 48 51 56 58 60 60 59 59 59 58 60 62 65 67 68 68 69 69 70 70 71 71 71 70 70 70 70 70 70 70 70 70 70 70 71 71 71 71 72 72 72 72 72 72 72 73 73 73 73 73 73 73 73 73 73 73 73 73
30 30 30 31 31 31 32 33 34 34 34 34 34 34 34 34 34 35 34 35 35 35 35 35 36 37 37 38 39 39 41 42 42 41 41 41 42 42 42 43 43 43 43 44 45 47 48 52 55 56 58 57 57 56 57 57 61 64 66 67 69 69 70 70 70 71 71 70 70 70 70 70 70 70 70 70 70 70 70 70 70 71 71 71 72 72 72 72 72 72 73 73 73 73 73 73 73 73 73 73 73 73 73
30 30 30 30 31 32 33 33 34 34 34 34 34 34 34 34 34 34 34 34 34 34 34 34 34 35 36 37 38 38 40 42 42 41 41 41 41 41 42 42 42 42 42 42 44 46 47 50 52 53 55 55 55 55 55 56 58 61 65 67 68 69 69 70 70 70 70 70 70 70 70 69 69 69 69 69 69 69 69 70 70 70 71 71 72 72 72 72 72 72 72 73 73 73 73 73 73 73 72 73 73 73 73
30 30 30 31 31 32 33 33 34 34 34 34 33 34 34 34 34 34 34 34 34 34 34 34 34 35 35 36 37 38 39 40 41 41 40 41 41 41 41 41 41 40 40 41 42 43 44 47 49 51 54 54 54 54 54 55 56 58 63 65 67 68 68 69 69 69 69 69 69 69 69 69 69 69 69 69 69 68 68 69 69 70 70 71 71 71 71 71 71 71 72 72 73 73 73 73 73 73 72 72 73 73 73
30 30 30 31 31 32 33 33 33 33 33 33 33 34 34 34 34 34 34 34 33 33 33 34 34 34 34 36 37 38 38 39 39 40 39 40 40 41 41 40 40 40 40 40 40 40 42 43 44 46 51 52 53 54 54 54 55 56 60 63 65 67 67 67 68 68 68 68 68 68 68 69 69 69 68 68 68 68 68 68 69 70 70 71 71 71 71 71 71 71 71 72 72 73 73 73 73 73 72 72 72 72 73
30 30 30 30 31 32 32 32 33 33 33 33 33 33 33 33 33 33 33 33 33 33 33 33 34 34 34 35 36 37 38 38 39 39 38 38 39 39 39 40 39 39 39 39 39 40 40 41 41 42 44 47 49 52 54 54 55 56 58 61 63 65 66 66 67 67 68 68 68 68 68 68 69 69 68 68 68 68 68 68 68 69 70 70 71 71 71 71 71 71 71 71 72 72 73 73 73 73 72 72 72 72 73
29 29 30 30 31 32 32 32 32 32 32 32 33 33 33 33 33 33 33 33 33 33 33 34 34 34 34 35 35 36 37 37 38 38 38 38 38 38 38 39 39 40 40 39 40 40 40 41 41 41 42 43 45 48 52 54 55 55 56 60 62 63 65 66 66 66 67 67 68 68 68 68 69 69 68 68 68 68 68 68 68 68 69 70 70 71 71 71 71 70 70 71 71 72 72 72 72 72 72 72 72 72 72
29 29 30 30 31 31 32 32 31 31 31 32 32 32 32 32 33 33 33 34 33 33 33 34 34 34 35 35 35 35 36 37 37 38 38 38 38 38 38 38 39 39 40 40 40 41 41 41 41 41 42 42 44 46 49 52 54 55 55 58 61 62 63 65 65 66 66 67 67 68 68 69 69 69 68 68 68 68 68 68 68 68 68 69 70 70 71 71 71 71 70 70 70 71 71 72 72 72 72 72 72 72 72
29 29 29 30 30 30 31 31 31 30 30 31 32 32 32 32 32 33 33 33 33 33 33 34 34 35 35 35 35 35 36 37 37 38 38 38 38 38 38 38 38 39 39 40 40 41 41 41 41 41 42 43 44 45 46 49 52 54 55 56 58 61 62 64 65 65 65 66 66 67 68 68 69 69 69 68 68 68 68 68 68 68 68 69 70 70 70 70 71 71 70 70 70 70 70 71 72 72 72 72 72 72 72
28 28 29 29 29 30 30 30 30 30 31 31 31 32 32 32 32 32 32 32 33 33 33 34 34 35 35 34 34 35 35 36 37 37 37 37 38 38 38 38 38 38 38 39 40 40 40 40 40 41 41 42 43 44 45 48 50 52 53 54 56 58 61 62 63 64 64 65 65 66 67 68 68 68 69 69 68 68 68 68 68 67 67 68 69 70 70 70 70 70 70 70 70 70 70 71 71 72 72 72 72 72 72
27 28 28 29 29 29 30 30 30 30 30 31 31 31 31 31 31 31 31 32 32 33 33 33 33 34 34 34 34 34 36 36 36 36 36 36 36 36 36 37 37 37 38 38 38 39 39 39 39 39 40 40 41 43 44 46 47 48 51 53 54 56 57 59 61 62 63 64 64 65 66 67 67 68 68 69 69 68 68 68 68 67 67 67 68 69 70 70 70 70 70 70 70 70 70 71 71 71 72 72 72 72 72
27 27 28 28 29 29 30 29 29 30 30 31 31 30 30 30 30 30 31 31 31 32 32 33 33 33 33 33 34 34 34 35 35 35 35 34 34 34 34 35 35 36 36 37 38 38 38 38 38 38 38 39 40 42 43 43 45 46 47 51 53 54 55 56 58 61 62 63 63 64 65 66 66 67 68 68 68 68 68 68 68 68 67 67 67 68 69 69 70 70 70 70 70 70 71 71 71 71 71 72 72 72 72
26 27 27 28 28 29 29 29 29 30 31 30 30 30 30 30 30 30 30 31 31 31 32 32 32 32 32 33 34 34 34 34 34 34 34 33 33 33 33 34 34 35 35 36 37 37 37 37 37 38 38 39 40 41 41 41 42 43 45 48 52 54 55 56 56 58 60 61 62 63 64 65 66 66 67 67 68 68 68 68 68 68 68 67 67 68 68 69 69 70 70 70 70 70 70 71 71 71 71 71 72 72 72
26 26 27 27 28 28 28 28 29 30 30 30 30 30 30 30 30 30 31 31 31 31 32 32 32 32 32 33 34 34 34 34 34 34 33 33 33 33 33 34 34 34 35 36 37 37 37 37 37 38 38 39 40 40 40 40 41 43 44 47 50 53 56 56 56 56 58 60 61 62 63 64 65 65 66 67 67 67 67 68 68 68 68 68 68 67 68 68 69 69 70 70 70 70 70 70 71 71 71 71 71 71 72
25 25 26 26 27 27 28 29 29 30 30 30 29 29 29 29 30 30 32 32 32 32 31 31 32 32 32 33 33 34 33 33 33 33 33 32 32 33 33 34 34 35 35 36 37 37 37 37 38 39 40 40 40 40 40 40 41 42 43 45 48 51 54 55 55 55 56 57 60 61 63 63 64 65 65 66 66 67 67 67 67 67 68 68 68 68 68 68 68 68 69 69 70 70 70 70 70 71 71 71 71 71 71
25 25 25 25 25 26 26 28 29 30 30 29 29 29 29 29 29 30 32 33 33 32 31 31 31 32 32 33 33 33 32 32 32 32 32 32 32 32 33 34 34 34 35 35 36 36 37 37 38 39 40 40 40 40 40 40 41 42 43 45 47 49 51 53 55 55 55 56 58 60 62 63 64 64 65 65 65 66 66 66 66 67 67 68 68 68 68 68 67 68 68 68 69 69 70 70 70 70 71 71 71 70 71
24 24 24 24 24 25 25 27 29 29 29 29 29 28 28 29 29 30 32 34 34 32 31 31 31 32 32 32 32 32 32 32 32 32 32 32 32 32 33 33 34 34 34 34 34 35 36 37 38 39 39 39 39 39 40 41 42 43 44 45 46 47 49 51 53 55 56 56 57 60 62 62 63 64 64 65 65 65 65 65 66 66 67 67 68 68 68 68 67 67 67 67 68 68 69 70 70 70 70 70 70 70 70
24 23 23 23 23 23 24 26 28 29 28 28 28 28 28 28 29 30 32 34 34 33 31 30 30 30 31 32 32 31 31 31 32 32 33 33 33 33 33 33 33 33 33 34 34 34 35 37 38 38 38 39 39 40 40 42 43 44 45 45 45 46 48 50 52 54 56 56 57 59 61 62 63 63 64 64 65 65 65 65 65 66 66 67 67 67 68 67 67 67 67 67 67 68 68 69 69 70 70 70 70 70 70
24 23 23 22 22 23 24 25 27 28 27 27 27 27 27 27 28 29 32 34 34 34 32 30 29 29 30 31 31 31 30 31 31 32 33 33 33 34 34 33 33 33 33 34 34 35 36 37 37 38 38 40 41 41 41 41 42 43 44 45 46 47 47 49 51 52 55 56 56 57 59 60 62 63 64 64 64 65 65 65 65 65 66 66 66 67 67 67 67 67 67 67 67 67 67 68 69 69 70 70 70 70 70
24 23 22 22 22 22 23 24 25 26 26 26 26 27 27 27 28 29 32 34 35 34 34 32 30 29 29 29 30 30 30 30 31 32 33 33 33 33 33 33 33 33 34 34 34 35 37 37 37 38 38 39 39 40 40 40 41 41 42 46 47 48 49 49 51 52 55 56 56 56 56 58 60 62 63 64 64 64 64 65 65 65 65 65 65 66 66 66 67 67 67 68 67 67 67 67 68 68 69 70 70 70 70
24 24 22 22 22 22 22 23 25 25 25 25 26 27 27 28 29 30 32 34 35 36 34 32 30 29 28 29 29 30 30 30 31 32 33 33 32 31 31 32 32 32 33 33 34 35 37 36 36 37 37 38 39 39 39 39 40 40 42 45 47 48 50 51 52 54 57 57 56 56 56 56 57 59 61 63 64 64 64 64 64 64 64 64 65 65 65 65 66 66 67 68 68 67 67 67 67 68 68 69 70 70 70
22 22 22 22 21 21 22 23 23 24 24 25 26 27 27 28 29 30 31 33 35 36 34 31 30 29 29 29 29 30 31 31 32 32 33 33 32 31 30 31 31 31 31 31 32 34 35 35 35 36 37 38 38 38 39 40 41 42 42 44 46 47 49 50 52 55 58 57 57 57 56 55 55 56 58 60 62 63 64 63 63 63 63 63 63 64 64 65 65 66 66 67 67 67 67 67 67 67 68 69 69 70 70
22 22 22 22 21 21 21 22 22 23 23 25 26 27 28 29 29 29 29 32 35 37 35 32 30 29 29 29 29 30 31 32 32 32 32 32 32 33 32 32 31 30 29 29 30 32 34 35 35 35 35 35 36 37 38 39 41 43 43 44 45 47 48 50 52 53 55 56 57 57 56 55 55 55 56 57 59 61 63 63 63 63 63 63 63 63 63 63 64 65 66 66 67 67 67 67 67 67 67 68 69 70 70
21 22 22 21 21 21 21 22 22 23 25 25 25 26 27 28 28 28 29 33 36 37 36 34 31 30 29 29 29 30 31 32 32 32 33 33 34 34 34 34 31 29 27 27 28 29 32 33 33 33 33 33 33 34 35 37 39 41 43 43 44 45 47 49 51 52 54 55 56 57 56 55 55 55 56 56 57 59 61 61 62 62 62 63 63 63 63 63 63 64 65 66 66 66 67 67 67 67 67 67 68 69 70
21 21 21 21 21 21 21 21 21 22 22 23 23 25 26 27 27 28 29 33 36 37 36 35 33 32 30 29 29 30 31 32 32 32 33 34 34 34 34 32 30 29 28 27 26 26 27 28 29 30 31 31 32 33 34 35 36 38 40 41 42 43 44 48 51 53 55 55 56 56 55 54 54 55 56 56 56 57 59 60 61 61 61 61 62 62 63 63 62 62 63 64 65 66 66 66 67 67 67 67 68 69 69
20 20 20 20 20 20 20 20 20 20 21 21 22 23 25 26 27 29 30 33 34 35 34 35 34 34 32 30 30 30 31 31 32 32 33 34 34 34 31 31 31 31 30 28 26 24 23 25 27 29 30 31 32 32 33 34 35 37 38 39 41 43 46 49 52 54 55 55 55 55 55 55 55 54 55 56 56 56 57 58 59 59 59 59 61 61 63 62 62 61 62 62 63 64 65 66 67 67 67 67 68 68 69
20 20 20 20 20 20 20 20 20 20 20 20 20 22 24 26 28 29 31 32 32 32 31 33 34 34 33 31 31 30 30 30 31 32 33 34 34 34 33 32 32 31 29 28 26 25 25 27 28 29 29 30 31 32 34 35 37 38 38 39 40 42 45 49 52 54 56 56 56 56 56 56 55 55 55 55 56 56 56 57 57 58 58 57 59 61 61 62 62 62 62 62 62 62 63 65 66 66 67 67 67 68 68
19 19 19 20 20 20 20 20 20 19 19 19 19 20 22 25 28 30 31 31 30 29 29 33 34 35 34 33 32 31 31 31 31 32 33 33 34 35 37 34 32 29 27 25 25 27 28 29 29 28 27 29 31 32 33 34 35 36 38 38 39 40 43 44 46 48 51 53 55 56 56 56 56 56 55 55 55 56 56 57 57 57 57 57 57 59 61 62 62 63 63 63 62 62 62 64 65 66 67 67 67 67 68
19 18 18 18 19 19 19 19 19 19 19 19 19 20 21 25 28 30 30 29 29 29 30 33 34 35 35 34 33 32 32 32 33 33 32 32 34 35 38 37 35 33 30 29 29 29 30 31 29 27 27 29 30 32 32 33 34 35 36 38 39 40 41 41 42 43 45 49 52 55 56 56 56 56 56 56 56 56 56 57 58 58 58 57 57 57 59 61 61 62 63 63 63 62 61 63 65 66 67 67 67 67 67
18 18 18 18 18 18 18 18 19 19 19 20 20 20 21 24 26 28 28 27 27 28 30 33 34 35 34 34 33 33 32 33 33 33 32 32 33 35 38 37 36 36 36 35 34 34 33 32 31 29 29 29 29 30 32 32 33 34 35 37 38 40 41 41 41 42 44 47 50 53 56 56 56 56 56 57 57 57 57 57 58 58 58 58 57 57 58 59 60 61 62 62 62 62 62 64 65 66 67 67 67 67 67
17 17 18 18 18 18 18 18 18 19 18 20 20 20 21 23 24 24 24 25 26 28 31 33 33 33 32 32 33 33 33 33 33 33 32 31 33 34 35 34 34 34 35 36 36 36 36 34 32 32 32 29 28 29 30 31 32 33 34 36 38 39 40 40 41 41 42 45 48 52 55 56 56 57 57 57 57 57 57 58 58 59 59 59 59 58 58 58 59 60 61 61 61 62 63 65 66 67 67 67 67 67 67
17 17 18 18 17 17 17 17 18 18 18 20 20 20 21 22 22 22 22 24 26 28 30 31 31 30 29 31 33 34 34 34 33 33 32 31 32 33 32 32 33 33 34 35 36 37 37 36 35 34 33 30 29 29 29 30 31 33 34 35 37 38 39 40 41 42 43 45 47 50 53 55 56 57 57 57 57 57 57 58 59 60 60 60 60 59 59 58 58 59 60 61 61 62 63 65 65 66 67 67 68 67 67
16 18 18 18 17 17 17 17 17 17 18 20 20 20 20 21 21 22 22 23 25 27 28 28 28 27 28 30 33 34 35 34 33 32 31 31 31 32 32 32 33 34 35 36 37 38 38 38 38 37 35 34 32 31 29 29 30 32 33 34 35 37 38 39 41 43 44 46 48 51 54 56 56 57 57 57 57 57 57 58 58 59 59 60 60 60 59 59 58 58 59 60 61 61 62 64 65 66 67 67 67 67 67